AirNav   ProFlight Series 2 Aviation Headset
 
 278 users online  

3PS7 Coxton Lake Heliport
Lakewood, Pennsylvania, USA

GOING TO LAKEWOOD?


FAA INFORMATION EFFECTIVE 18 JUNE 2020

Location

FAA Identifier: 3PS7
Lat/Long: 41-51-29.0000N 075-26-56.0000W
41-51.483333N 075-26.933333W
41.8580556,-75.4488889
(estimated)
Elevation: 2110 ft. / 643 m (estimated)
From city: 3 miles W of LAKEWOOD, PA
Time zone: UTC -4 (UTC -5 during Standard Time)
Zip code: 18462

Heliport Operations

Heliport use: Private use. Permission required prior to landing
Activation date: 08/2006
Control tower: no
ARTCC: NEW YORK CENTER
FSS: WILLIAMSPORT FLIGHT SERVICE STATION
Attendance: IREG
Wind indicator: yes
Segmented circle: no

Nearby radio navigation aids

VOR radial/distance  VOR name  Freq  Var
HNKr217/13.6HANCOCK VOR/DME116.8011W
DNYr240/29.2DELANCEY VOR/DME112.1011W
CFBr130/35.5BINGHAMTON VOR/DME112.2010W
LVZr027/36.7WILKES-BARRE VORTAC111.6010W
RKAr205/37.7ROCKDALE VOR/DME112.6011W

Heliport Services

Runway Information

Helipad H1

Dimensions: 65 x 65 ft. / 20 x 20 m
Surface: turf
Runway edge markings: FOUR CORNERS OF HELIPAD MARKED WITH WHITE CONCRETE BLOCKS.
Traffic pattern: leftleft

Heliport Ownership and Management from official FAA records

Ownership: Privately-owned
Owner: ROBERT ALLEN
6085 WHITETAIL DRIVE
COOPERSBURG, PA 18036
Phone 215-353-2072
Manager: ROBERT ALLEN
3131 WRIGHTER LAKE ROAD
THOMPSON, PA 18645
Phone 570-727-3001

Heliport Operational Statistics

Aircraft based on the field: 1
Helicopters: 1
    

Additional Remarks

FOR CD CTC NEW YORK ARTCC AT 631-468-1425.

Instrument Procedures

There are no published instrument procedures at 3PS7.

Some nearby airports with instrument procedures:

9N3 - Seamans Field Airport (21 nm SW)
N30 - Cherry Ridge Airport (22 nm SE)
N23 - Sidney Municipal Airport (27 nm N)
70N - Spring Hill Airport (31 nm S)
KMSV - Sullivan County International Airport (31 nm E)
 
Loc | Ops | Rwys | IFR | FBO | Links
Com | Nav | Svcs | Stats | Notes
Area around 3PS7 (Coxton Lake Heliport)
 
Road maps at: MapQuest Bing Google
 
Aerial photo
No photo
 
Sectional chart

 
Airport distance calculator
Flying to Coxton Lake Heliport? Find the distance to fly.

From to 3PS7

Sunrise and sunset
Times for 15-Jul-2020
 Local
(UTC-4)
 Zulu
(UTC)
Morning civil twilight05:0909:09
Sunrise05:4209:42
Sunset20:3400:34
Evening civil twilight21:0701:07

Current date and time
Zulu (UTC)  15-Jul-2020 07:35:41
Local (UTC-4)  15-Jul-2020 03:35:41
 
METAR
KMSV 
31nm E 
150656Z AUTO 35003KT 10SM CLR 16/14 A3015 RMK AO2 SLP203 T01560144
KBGM 
32nm NW 
150653Z AUTO 02003KT 10SM CLR 18/14 A3015 RMK AO2 SLP201 T01780144 $
KAVP 
34nm S 
150654Z 11005KT 10SM CLR 18/16 A3013 RMK AO2 SLP193 T01780156 PNO $
KMPO 
44nm S 
150653Z AUTO 35004KT 10SM CLR 17/14 A3015 RMK AO2 SLP200 T01720139
TAF
KBGM 
32nm NW 
150530Z 1506/1606 VRB03KT P6SM SCT080 TEMPO 1512/1515 BKN025 FM151500 VRB03KT P6SM SCT035
KAVP 
34nm S 
150530Z 1506/1606 11006KT P6SM SCT250 FM151200 VRB03KT P6SM BKN040 FM151600 24005KT P6SM SCT040
NOTAMs
Click for the latest NOTAMs
NOTAMs are issued by the DoD/FAA and will open in a separate window not controlled by AirNav.

 

 
 

Would you like to see your business listed on this page?

 If your business provides an interesting product or service to pilots, flight crews, aircraft, or users of the Coxton Lake Heliport, you should consider listing it here.  To start the listing process, click on the button below
 
Add a business
 

Other Pages about Coxton Lake Heliport

Update a link
 
Copyright © AirNav, LLC. All rights reserved. Privacy Policy  Contact